Location: Albany
(35.0000°S, 118.0000°E)
Time: 07:54:20
(UTC-05:00)

ISS - All Passes

Search period start: 10 February 2016 00:00
Search period end: 20 February 2016 00:00
Orbit: 399 x 408 km, 51.6° (Epoch: 10 February)

Date Brightness Start Highest point End Pass type
(mag) Time Alt. Az. Time Alt. Az. Time Alt. Az.
10 Feb - 13:04:48 10° NNE 13:06:46 15° NE 13:08:45 10° E visible
10 Feb - 14:39:46 10° WNW 14:42:57 42° SW 14:46:10 10° SE visible
10 Feb - 21:10:01 10° SW 21:13:16 46° SE 21:16:29 10° ENE daylight
10 Feb - 22:47:39 10° W 22:49:24 14° NW 22:51:09 10° NNW daylight
11 Feb - 13:46:56 10° NW 13:50:15 90° SSE 13:53:36 10° SE visible
11 Feb - 15:25:31 10° SW 15:27:08 13° SSW 15:28:45 10° S visible
11 Feb - 20:17:38 10° SSW 20:20:29 25° SE 20:23:19 10° E daylight
11 Feb - 21:54:00 10° WSW 21:56:55 28° NW 21:59:49 10° NNE daylight
12 Feb - 12:54:32 10° NNW 12:57:38 39° NE 13:00:47 10° ESE visible
12 Feb - 14:31:39 10° W 14:34:13 20° SSW 14:36:46 10° SSE visible
12 Feb - 19:25:29 10° S 19:27:35 15° SSE 19:29:41 10° ESE daylight
12 Feb - 21:01:00 10° SW 21:04:20 63° NW 21:07:37 10° NE daylight
13 Feb - 12:02:42 10° N 12:05:05 19° NE 12:07:29 10° E night (unlit)
13 Feb - 13:38:16 10° WNW 13:41:20 34° SW 13:44:27 10° SSE visible
13 Feb - 18:34:06 10° SSE 18:34:34 10° SSE 18:35:03 10° SSE daylight
13 Feb - 20:08:18 10° SW 20:11:37 58° SE 20:14:55 10° ENE daylight
13 Feb - 21:46:48 10° WNW 21:47:40 11° NW 21:48:32 10° NW daylight
14 Feb - 12:45:15 10° NW 12:48:33 71° SW 12:51:53 10° SE visible
14 Feb - 14:24:24 10° SW 14:25:31 11° SSW 14:26:39 10° S visible
14 Feb - 19:15:48 10° SSW 19:18:48 29° SE 19:21:47 10° E daylight
14 Feb - 20:52:27 10° WSW 20:55:08 23° NW 20:57:48 10° N daylight
15 Feb - 11:52:38 10° NNW 11:55:49 50° NE 11:59:04 10° ESE night (unlit)
15 Feb - 13:30:10 10° WSW 13:32:28 17° SSW 13:34:48 10° SSE visible
15 Feb - 18:23:29 10° SSW 18:25:51 18° SSE 18:28:12 10° ESE daylight
15 Feb - 19:59:15 10° WSW 20:02:30 49° NW 20:05:43 10° NNE daylight
16 Feb - 11:00:30 10° N 11:03:10 23° NE 11:05:52 10° ESE night (unlit)
16 Feb - 12:36:34 10° W 12:39:30 28° SW 12:42:28 10° SSE visible
16 Feb - 17:31:35 10° S 17:32:47 11° SSE 17:34:00 10° SE daylight
16 Feb - 19:06:24 10° SW 19:09:44 73° SE 19:13:04 10° NE daylight
17 Feb - 10:09:39 10° NE 10:10:34 11° NE 10:11:29 10° ENE night (unlit)
17 Feb - 11:43:21 10° WNW 11:46:36 56° SW 11:49:54 10° SE night (unlit)
17 Feb - 18:13:45 10° SSW 18:16:52 35° SE 18:19:58 10° ENE daylight
17 Feb - 19:50:44 10° W 19:53:07 18° NW 19:55:29 10° N daylight
18 Feb - 10:50:31 10° NW 10:53:47 65° NE 10:57:05 10° SE night (unlit)
18 Feb - 12:28:29 10° WSW 12:30:31 15° SSW 12:32:34 10° S night (unlit)
18 Feb - 17:21:17 10° SSW 17:23:52 20° SSE 17:26:26 10° E daylight
18 Feb - 18:57:16 10° WSW 19:00:25 38° NW 19:03:32 10° NNE daylight
19 Feb - 09:58:09 10° NNW 10:01:01 28° NE 10:03:56 10° ESE night (unlit)
19 Feb - 11:34:40 10° W 11:37:27 24° SSW 11:40:15 10° SSE night (unlit)
19 Feb - 16:29:07 10° S 16:30:45 13° SSE 16:32:23 10° SE daylight
19 Feb - 18:04:15 10° SW 18:07:37 89° NNW 18:10:57 10° NE daylight
